TimeCST,TemperatureF,Dew PointF,Humidity,Sea Level PressureIn,VisibilityMPH,Wind Direction,Wind SpeedMPH,Gust SpeedMPH,PrecipitationIn,Events,Conditions,WindDirDegrees,DateUTC
12:52 AM,1.9,-0.0,91,30.04,10.0,Calm,Calm,-,N/A,,Clear,0,2013-01-05 06:52:00
1:52 AM,1.9,-2.0,83,30.03,10.0,Calm,Calm,-,N/A,,Clear,0,2013-01-05 07:52:00
2:52 AM,3.0,-0.0,87,30.03,10.0,Calm,Calm,-,N/A,,Clear,0,2013-01-05 08:52:00
3:52 AM,1.0,-2.0,87,30.03,10.0,NE,4.6,-,N/A,,Clear,40,2013-01-05 09:52:00
4:52 AM,-0.0,-2.9,88,30.03,10.0,Calm,Calm,-,N/A,,Clear,0,2013-01-05 10:52:00
5:52 AM,14.0,10.9,88,30.03,10.0,WNW,6.9,-,N/A,,Mostly Cloudy,300,2013-01-05 11:52:00
6:52 AM,19.9,14.0,78,30.05,9.0,NW,20.7,27.6,N/A,,Overcast,310,2013-01-05 12:52:00
7:52 AM,19.0,12.9,77,30.07,10.0,WNW,13.8,-,N/A,,Overcast,300,2013-01-05 13:52:00
8:18 AM,18.0,12.0,78,29.98,9.0,NW,18.4,28.8,N/A,,Overcast,320,2013-01-05 14:18:00
8:36 AM,16.0,10.9,81,29.99,9.0,NW,24.2,-,N/A,,Overcast,320,2013-01-05 14:36:00
8:52 AM,14.0,9.0,80,30.12,4.0,NW,20.7,31.1,0.00,,Overcast,310,2013-01-05 14:52:00
9:52 AM,10.0,5.0,80,30.18,3.0,NNW,24.2,36.8,0.00,Snow,Light Snow,330,2013-01-05 15:52:00
10:12 AM,10.0,5.0,80,30.07,3.0,NW,18.4,33.4,0.00,Snow,Light Snow,320,2013-01-05 16:12:00
10:29 AM,10.9,6.1,81,30.08,2.0,NW,15.0,24.2,0.00,Snow,Light Snow,320,2013-01-05 16:29:00
10:52 AM,12.9,9.0,84,30.22,3.0,NW,10.4,-,0.00,Snow,Light Snow,310,2013-01-05 16:52:00
11:32 AM,15.1,10.0,80,30.11,2.5,NW,12.7,-,0.00,Snow,Light Snow,320,2013-01-05 17:32:00
11:52 AM,15.1,9.0,77,30.23,2.5,NW,15.0,-,0.00,Snow,Light Snow,320,2013-01-05 17:52:00
12:01 PM,15.1,10.0,80,30.11,3.0,NW,12.7,23.0,0.00,Snow,Light Snow,320,2013-01-05 18:01:00
12:52 PM,16.0,10.0,77,30.23,10.0,NW,13.8,-,0.00,,Overcast,310,2013-01-05 18:52:00
1:52 PM,17.1,12.0,81,30.22,10.0,NW,10.4,-,N/A,,Overcast,310,2013-01-05 19:52:00
2:52 PM,17.1,12.0,81,30.24,10.0,West,9.2,-,N/A,,Overcast,280,2013-01-05 20:52:00
3:52 PM,16.0,10.9,81,30.27,9.0,WNW,15.0,-,N/A,,Overcast,290,2013-01-05 21:52:00
4:18 PM,15.1,10.0,80,30.15,9.0,WNW,10.4,-,N/A,,Overcast,290,2013-01-05 22:18:00
4:40 PM,15.1,10.0,80,30.15,10.0,NW,8.1,-,N/A,,Scattered Clouds,310,2013-01-05 22:40:00
4:52 PM,15.1,10.0,80,30.27,10.0,WNW,4.6,-,N/A,,Clear,290,2013-01-05 22:52:00
5:52 PM,10.9,6.1,81,30.26,8.0,WSW,5.8,-,N/A,,Clear,240,2013-01-05 23:52:00
6:52 PM,9.0,5.0,84,30.25,6.0,SW,4.6,-,N/A,,Clear,230,2013-01-06 00:52:00
7:52 PM,6.1,1.9,83,30.24,5.0,Calm,Calm,-,N/A,,Clear,0,2013-01-06 01:52:00
8:52 PM,7.0,3.9,87,30.25,6.0,Calm,Calm,-,N/A,,Clear,0,2013-01-06 02:52:00
9:52 PM,6.1,3.0,87,30.24,7.0,Calm,Calm,-,N/A,,Clear,0,2013-01-06 03:52:00
10:52 PM,9.0,6.1,88,30.23,9.0,WSW,5.8,-,N/A,,Clear,250,2013-01-06 04:52:00
11:52 PM,8.1,5.0,87,30.24,9.0,West,4.6,-,N/A,,Clear,280,2013-01-06 05:52:00